Date String (YYYY-MM-DD hh:mm:ss) UTC,Instrument flags,absolute air pressure of the measurement (hPa),sample flow rate (lpm),inlet stack bypass flow (lpm),air temperature of the measurement (°C),ambient temperature measured by the external sensor (°C),aerosol sample conditioner tube jacket temperature (°C),OPC LED temperature (°C),internal box temperature (°C),relative humidity of the measurement (%),span deviation,mass concentration of particles derived from Lorenz-Mie calculation of OPC scattering (μg/m³),mass concentration of particles derived from Lorenz-Mie calculation of OPC scattering (μg/m³),mass concentration of particles derived from Lorenz-Mie calculation of OPC scattering (μg/m³)
DateTimeUTC,F1_M11,P_M11,Q1_M11,Q2_M11,T1_M11,T2_M11,T3_M11,T4_M11,T5_M11,U1_M11,ZSPAN_M11,X2_M11,X0_M11,X1_M11
2023-06-10 13:00:00,SystemResetWarning,0829.4,5.00,000.00,029.4,027.7,000.0,037.9,030.9,21.7,0000.0,0003.49,0007.04,0002.68
2023-06-10 13:01:00,SystemResetWarning,0829.3,5.00,000.00,029.4,027.8,000.0,037.9,030.9,22.4,0000.0,0003.51,0007.08,0002.69
2023-06-10 13:02:00,SystemResetWarning,0829.3,5.00,000.00,029.4,027.8,000.0,037.9,030.9,22.1,0000.0,0003.49,0007.03,0002.69
2023-06-10 13:03:00,SystemResetWarning,0829.3,5.00,000.00,029.4,027.8,000.0,037.9,030.9,22.6,0000.0,0003.49,0007.04,0002.69
2023-06-10 13:04:00,SystemResetWarning,0829.3,4.99,000.00,029.4,027.8,000.0,037.9,030.9,22.5,0000.0,0003.51,0006.82,0002.70
2023-06-10 13:05:00,SystemResetWarning,0829.2,4.99,000.00,029.4,027.8,000.0,037.9,030.9,21.8,0000.0,0003.57,0006.94,0002.70
2023-06-10 13:06:00,SystemResetWarning,0829.2,5.00,000.00,029.4,027.8,000.0,037.9,030.9,21.1,0000.0,0003.60,0007.36,0002.69
2023-06-10 13:07:00,SystemResetWarning,0829.2,4.99,000.00,029.4,027.8,000.0,038.0,030.9,21.4,0000.0,0003.60,0007.39,0002.68
2023-06-10 13:08:00,SystemResetWarning,0829.2,5.01,000.00,029.4,027.8,000.0,038.0,030.9,21.3,0000.0,0003.57,0007.34,0002.66
2023-06-10 13:09:00,SystemResetWarning,0829.2,5.01,000.00,029.4,027.8,000.0,038.0,030.9,21.9,0000.0,0003.57,0007.33,0002.66
2023-06-10 13:10:00,SystemResetWarning,0829.2,5.00,000.00,029.4,027.8,000.0,038.0,030.9,20.9,0000.0,0003.55,0007.57,0002.66
2023-06-10 13:11:00,SystemResetWarning,0829.2,5.00,000.00,029.4,027.8,000.0,038.0,030.9,21.3,0000.0,0003.56,0007.60,0002.68
2023-06-10 13:12:00,SystemResetWarning,0829.3,4.99,000.00,029.5,027.8,000.0,038.0,030.9,21.9,0000.0,0003.52,0007.94,0002.66
2023-06-10 13:13:00,SystemResetWarning,0829.2,4.99,000.00,029.5,027.8,000.0,038.0,030.9,21.9,0000.0,0003.52,0008.25,0002.67
2023-06-10 13:14:00,SystemResetWarning,0829.2,5.01,000.00,029.5,027.8,000.0,038.0,030.9,21.6,0000.0,0003.53,0008.34,0002.66
2023-06-10 13:15:00,SystemResetWarning,0829.3,5.01,000.00,029.5,027.8,000.0,038.0,030.9,21.8,0000.0,0003.49,0008.20,0002.65
2023-06-10 13:16:00,SystemResetWarning,0829.3,4.99,000.00,029.5,027.8,000.0,038.0,030.9,21.2,0000.0,0003.44,0008.26,0002.63
2023-06-10 13:17:00,SystemResetWarning,0829.3,4.99,000.00,029.5,027.8,000.0,038.0,030.9,21.8,0000.0,0003.42,0008.15,0002.62
2023-06-10 13:18:00,SystemResetWarning,0829.3,4.99,000.00,029.5,027.9,000.0,038.0,030.9,22.3,0000.0,0003.42,0008.15,0002.61
2023-06-10 13:19:00,SystemResetWarning,0829.3,5.00,000.00,029.5,027.9,000.0,038.0,030.9,21.1,0000.0,0003.44,0008.44,0002.62
2023-06-10 13:20:00,SystemResetWarning,0829.3,5.00,000.00,029.5,027.9,000.0,038.0,030.9,21.2,0000.0,0003.44,0008.59,0002.62
2023-06-10 13:21:00,SystemResetWarning,0829.4,5.00,000.00,029.5,027.9,000.0,038.0,031.0,21.4,0000.0,0003.42,0008.24,0002.62
2023-06-10 13:22:00,SystemResetWarning,0829.3,5.01,000.00,029.5,027.9,000.0,038.0,031.0,21.4,0000.0,0003.44,0008.25,0002.61
2023-06-10 13:23:00,SystemResetWarning,0829.3,5.00,000.00,029.5,027.9,000.0,038.0,031.0,21.8,0000.0,0003.49,0007.92,0002.62
2023-06-10 13:24:00,SystemResetWarning,0829.4,5.00,000.00,029.5,027.9,000.0,038.0,031.0,21.9,0000.0,0003.50,0007.64,0002.61
2023-06-10 13:25:00,SystemResetWarning,0829.3,5.00,000.00,029.5,027.9,000.0,038.1,031.0,22.1,0000.0,0003.47,0007.52,0002.60
2023-06-10 13:26:00,SystemResetWarning,0829.3,4.99,000.00,029.5,027.9,000.0,038.1,031.0,21.9,0000.0,0003.48,0007.55,0002.60
2023-06-10 13:27:00,SystemResetWarning,0829.4,5.00,000.00,029.5,027.9,000.0,038.1,031.0,22.1,0000.0,0003.53,0007.48,0002.61
2023-06-10 13:28:00,SystemResetWarning,0829.3,5.00,000.00,029.5,027.9,000.0,038.1,031.0,22.5,0000.0,0003.54,0007.53,0002.63
2023-06-10 13:29:00,SystemResetWarning,0829.3,5.00,000.00,029.5,027.9,000.0,038.1,031.0,24.3,0000.0,0003.57,0007.80,0002.62
2023-06-10 13:30:00,SystemResetWarning,0829.4,5.00,000.00,029.6,027.9,000.0,038.1,031.0,25.7,0000.0,0003.58,0007.86,0002.63
2023-06-10 13:31:00,SystemResetWarning,0829.3,5.01,000.00,029.6,027.9,000.0,038.1,031.0,25.7,0000.0,0003.59,0007.65,0002.65
2023-06-10 13:32:00,SystemResetWarning,0829.3,5.00,000.00,029.6,028.0,000.0,038.1,031.0,25.9,0000.0,0003.60,0007.61,0002.67
2023-06-10 13:33:00,SystemResetWarning,0829.3,5.00,000.00,029.6,028.0,000.0,038.1,031.0,25.1,0000.0,0003.60,0007.59,0002.69
2023-06-10 13:34:00,SystemResetWarning,0829.3,5.00,000.00,029.6,028.0,000.0,038.1,031.0,24.9,0000.0,0003.56,0007.51,0002.70
2023-06-10 13:35:00,SystemResetWarning,0829.3,5.00,000.00,029.6,028.0,000.0,038.1,031.1,25.6,0000.0,0003.59,0007.62,0002.72
2023-06-10 13:36:00,SystemResetWarning,0829.4,5.00,000.00,029.6,028.0,000.0,038.1,031.1,25.5,0000.0,0003.63,0007.72,0002.77
2023-06-10 13:37:00,SystemResetWarning,0829.4,4.99,000.00,029.6,028.0,000.0,038.1,031.1,26.0,0000.0,0003.65,0007.79,0002.79
2023-06-10 13:38:00,SystemResetWarning,0829.4,5.00,000.00,029.6,028.1,000.0,038.1,031.1,25.6,0000.0,0003.64,0007.77,0002.80
2023-06-10 13:39:00,SystemResetWarning,0829.4,5.00,000.00,029.6,028.1,000.0,038.2,031.1,26.0,0000.0,0003.63,0007.71,0002.82
2023-06-10 13:40:00,SystemResetWarning,0829.4,5.01,000.00,029.7,028.1,000.0,038.2,031.1,25.6,0000.0,0003.62,0007.99,0002.85
2023-06-10 13:41:00,SystemResetWarning,0829.4,5.01,000.00,029.7,028.1,000.0,038.2,031.1,24.6,0000.0,0003.61,0007.97,0002.86
2023-06-10 13:42:00,SystemResetWarning,0829.5,4.99,000.00,029.7,028.1,000.0,038.2,031.1,21.6,0000.0,0003.60,0007.94,0002.85
2023-06-10 13:43:00,SystemResetWarning,0829.5,4.99,000.00,029.7,028.1,000.0,038.2,031.1,21.2,0000.0,0003.60,0007.92,0002.82
2023-06-10 13:44:00,SystemResetWarning,0829.5,5.00,000.00,029.7,028.1,000.0,038.2,031.1,21.5,0000.0,0003.58,0007.95,0002.79
2023-06-10 13:45:00,SystemResetWarning,0829.6,5.01,000.00,029.7,028.1,000.0,038.2,031.1,21.3,0000.0,0003.59,0008.00,0002.79
2023-06-10 13:46:00,SystemResetWarning,0829.6,5.01,000.00,029.7,028.2,000.0,038.2,031.1,21.1,0000.0,0003.58,0007.93,0002.77
2023-06-10 13:47:00,SystemResetWarning,0829.6,5.01,000.00,029.7,028.2,000.0,038.2,031.2,21.1,0000.0,0003.56,0007.83,0002.75
2023-06-10 13:48:00,SystemResetWarning,0829.6,4.99,000.00,029.7,028.2,000.0,038.2,031.2,24.3,0000.0,0003.53,0007.70,0002.75
2023-06-10 13:49:00,SystemResetWarning,0829.7,5.00,000.00,029.7,028.2,000.0,038.2,031.2,24.8,0000.0,0003.53,0007.65,0002.78
2023-06-10 13:50:00,SystemResetWarning,0829.6,4.99,000.00,029.8,028.2,000.0,038.2,031.2,24.7,0000.0,0003.56,0007.48,0002.77
2023-06-10 13:51:00,SystemResetWarning,0829.7,5.00,000.00,029.8,028.2,000.0,038.3,031.2,24.5,0000.0,0003.57,0006.74,0002.77
2023-06-10 13:52:00,SystemResetWarning,0829.7,5.01,000.00,029.8,028.2,000.0,038.3,031.2,24.6,0000.0,0003.57,0006.49,0002.78
2023-06-10 13:53:00,SystemResetWarning,0829.7,5.01,000.00,029.8,028.2,000.0,038.3,031.2,25.0,0000.0,0003.58,0006.56,0002.79
2023-06-10 13:54:00,SystemResetWarning,0829.7,5.00,000.00,029.8,028.3,000.0,038.3,031.2,24.8,0000.0,0003.60,0006.70,0002.81
2023-06-10 13:55:00,SystemResetWarning,0829.7,5.00,000.00,029.8,028.3,000.0,038.3,031.3,25.9,0000.0,0003.64,0007.01,0002.85
2023-06-10 13:56:00,SystemResetWarning,0829.7,5.00,000.00,029.8,028.3,000.0,038.3,031.3,26.2,0000.0,0003.66,0007.41,0002.89
2023-06-10 13:57:00,SystemResetWarning,0829.7,5.00,000.00,029.8,028.3,000.0,038.3,031.3,26.1,0000.0,0003.67,0007.42,0002.94
2023-06-10 13:58:00,SystemResetWarning,0829.7,5.00,000.00,029.9,028.3,000.0,038.3,031.3,26.5,0000.0,0003.66,0007.46,0002.95
2023-06-10 13:59:00,SystemResetWarning,0829.7,5.00,000.00,029.9,028.3,000.0,038.3,031.3,25.8,0000.0,0003.68,0007.66,0002.97
